Hope-OSCAR-113

operational
NORAD ID: 50466 Int'l Des: 2021-131 Owner: CAMSAT Country: CN
LEOCIRCULARRETROGRADESSO

About Hope-OSCAR-113

Description loading...

Live Position

Loading 3D Globe...

Upcoming Passes

Altitude History

Altitude vs Time

uPlot chart will show altitude changes over time

Two-Line Element Set

1 50466U 21131B 26061.21443601 .00000625 00000-0 20726-3 0 9998
2 50466 98.4970 154.2127 0005129 68.2708 291.9026 14.41239107219700
Epoch: Mar 2, 2026 • Age: 40 hours

Current Status

Altitude 785.7 km
Velocity 7.46 km/s
Sub-Earth Point -78.55°S, 108.26°W
Launch Date Dec 26, 2021
Age 4.1 years
Type other

Technical Details

Classification Payload
Mass 10.00 kg
Dry Mass 10.00 kg
Total Mass 10.00 kg
Length 0.30 m
Diameter 0.10 m
Span 1.00 m
Shape Box + 2 pan + antenna
Manufacturer YLYZ/CAMSAT
Bus Type Cubesat 6U
Phase Status In Orbit
Owner/State CAMSAT/CN

Large Constellations

Loading constellations...